Terug naar catalogus

CZ-6A DEB

ActiefSSO
NORAD 56666·DEBRIS·🇨🇳 China

Gelanceerd Nov 11, 2022 vanaf Taiyuan Satellite Launch Center

Loading…

Volgende Passages (komende 24 uur)

TLE

VerouderendSource: Space-Track

Epoch: Sep 9, 2026, 23:03 UTC

1 56666U 22151AGS 26252.96042940  .00000971  00000-0  28463-3 0  9994
2 56666  98.7243 315.7291 0074699  31.9398 328.6288 14.44626400177632

Volg CZ-6A DEB in realtime met AllMySat

Download on the App Store